Location: Newark
(44.3867°N, 6.6531°E)
Time: 23:29:42
(UTC+00:00)

Envisat - Pass Details

Date: 30 January 2020
Orbit: 764 x 766 km, 98.1° (Epoch: 19 February)

Event Time Altitude Azimuth Distance (km) Brightness Sun altitude
Rises 17:41:25 0° 178° (S) 3,218 6.4 -11.3°
Reaches altitude 10° 17:43:45 10° 183° (S) 2,296 5.7 -11.7°
Maximum altitude 17:48:42 54° 260° (W) 929 3.9 -12.6°
Drops below altitude 10° 17:53:42 10° 338° (NNW) 2,312 5.6 -13.5°
Sets 17:56:04 0° 343° (NNW) 3,243 6.3 -13.9°
